Location: Gwatt
(46.7204°N, 7.6223°E)
Time: 16:39:09
(UTC+00:00)

Envisat - Pass Details

Date: 30 November 2020
Orbit: 764 x 766 km, 98.1° (Epoch: 20 January)

Event Time Altitude Azimuth Distance (km) Brightness Sun altitude
Rises 05:54:23 0° 10° (N) 3,246 6.1 -9.8°
Reaches altitude 10° 05:56:43 10° 7° (N) 2,315 5.3 -9.4°
Maximum altitude 06:01:44 60° 289° (WNW) 880 3.0 -8.6°
Drops below altitude 10° 06:06:42 10° 210° (SSW) 2,297 5.4 -7.8°
Sets 06:09:01 0° 207° (SSW) 3,219 6.2 -7.4°
